Time,TemperatureF,DewpointF,PressureIn,WindDirection,WindDirectionDegrees,WindSpeedMPH,WindSpeedGustMPH,Humidity,HourlyPrecipIn,Conditions,Clouds,dailyrainin,SoftwareType,DateUTC
2013-03-04 00:00:00,26.6,21.8,30.05,NNW,329,0.0,0.0,82,0.00,,,0.00,Wunderground v.1.13,2013-03-04 05:00:00,
2013-03-04 00:10:00,26.6,22.1,30.06,NNW,329,0.0,0.0,83,0.00,,,0.00,Wunderground v.1.13,2013-03-04 05:10:00,
2013-03-04 00:20:00,26.6,22.1,30.05,NNW,329,0.0,0.0,83,0.00,,,0.00,Wunderground v.1.13,2013-03-04 05:20:00,
2013-03-04 00:30:00,26.5,21.7,30.06,NNW,329,0.0,0.0,82,0.00,,,0.00,Wunderground v.1.13,2013-03-04 05:30:00,
2013-03-04 00:39:00,26.5,22.0,30.05,NNW,329,0.0,0.0,83,0.00,,,0.00,Wunderground v.1.13,2013-03-04 05:39:00,
2013-03-04 00:50:00,26.5,21.7,30.06,NNW,329,0.0,0.0,82,0.00,,,0.00,Wunderground v.1.13,2013-03-04 05:50:00,
2013-03-04 01:00:00,26.5,22.0,30.06,NNW,329,0.0,0.0,83,0.00,,,0.00,Wunderground v.1.13,2013-03-04 06:00:00,
2013-03-04 01:10:00,26.5,22.3,30.06,NNW,329,0.0,0.0,84,0.00,,,0.00,Wunderground v.1.13,2013-03-04 06:10:00,
2013-03-04 01:20:00,26.5,22.3,30.06,NNW,329,0.0,0.0,84,0.00,,,0.00,Wunderground v.1.13,2013-03-04 06:20:00,
2013-03-04 01:30:00,26.5,22.3,30.07,NNW,329,0.0,0.0,84,0.00,,,0.00,Wunderground v.1.13,2013-03-04 06:30:00,
2013-03-04 01:40:00,26.5,22.3,30.07,NNW,329,0.0,0.0,84,0.00,,,0.00,Wunderground v.1.13,2013-03-04 06:40:00,
2013-03-04 01:50:00,26.5,22.3,30.07,NNW,329,0.0,0.0,84,0.00,,,0.00,Wunderground v.1.13,2013-03-04 06:50:00,
2013-03-04 02:00:00,26.5,22.3,30.08,WNW,300,0.0,1.0,84,0.00,,,0.00,Wunderground v.1.13,2013-03-04 07:00:00,
2013-03-04 02:10:00,26.3,22.1,30.08,WNW,300,0.0,0.0,84,0.00,,,0.00,Wunderground v.1.13,2013-03-04 07:10:00,
2013-03-04 02:19:00,26.3,22.4,30.08,NW,313,1.0,1.0,85,0.00,,,0.00,Wunderground v.1.13,2013-03-04 07:19:00,
2013-03-04 02:30:00,26.2,22.3,30.08,NW,322,1.0,1.0,85,0.00,,,0.00,Wunderground v.1.13,2013-03-04 07:30:00,
2013-03-04 02:40:00,26.2,22.0,30.08,WNW,299,1.0,1.0,84,0.00,,,0.00,Wunderground v.1.13,2013-03-04 07:40:00,
2013-03-04 02:50:00,26.1,21.9,30.09,NW,316,1.0,1.0,84,0.00,,,0.00,Wunderground v.1.13,2013-03-04 07:50:00,
2013-03-04 03:00:00,26.1,21.9,30.09,NNW,346,0.0,1.0,84,0.00,,,0.00,Wunderground v.1.13,2013-03-04 08:00:00,
2013-03-04 03:10:00,26.0,22.1,30.09,NNW,336,0.0,0.0,85,0.00,,,0.00,Wunderground v.1.13,2013-03-04 08:10:00,
2013-03-04 03:19:00,25.8,21.9,30.09,NNW,336,0.0,0.0,85,0.00,,,0.00,Wunderground v.1.13,2013-03-04 08:19:00,
2013-03-04 03:30:00,25.7,22.1,30.09,NNW,336,0.0,0.0,86,0.00,,,0.00,Wunderground v.1.13,2013-03-04 08:30:00,
2013-03-04 03:40:00,25.7,22.4,30.09,NNW,329,0.0,1.0,87,0.00,,,0.00,Wunderground v.1.13,2013-03-04 08:40:00,
2013-03-04 03:50:00,25.6,21.7,30.09,NW,325,1.0,1.0,85,0.00,,,0.00,Wunderground v.1.13,2013-03-04 08:50:00,
2013-03-04 04:00:00,25.5,21.6,30.09,NW,325,1.0,1.0,85,0.00,,,0.00,Wunderground v.1.13,2013-03-04 09:00:00,
2013-03-04 04:10:00,25.4,21.2,30.10,NW,325,0.0,0.0,84,0.00,,,0.00,Wunderground v.1.13,2013-03-04 09:10:00,
2013-03-04 04:20:00,25.3,21.4,30.10,NW,325,0.0,0.0,85,0.00,,,0.00,Wunderground v.1.13,2013-03-04 09:20:00,
2013-03-04 04:30:00,25.2,21.3,30.10,NW,325,0.0,0.0,85,0.00,,,0.00,Wunderground v.1.13,2013-03-04 09:30:00,
2013-03-04 04:40:00,25.2,21.0,30.10,NW,325,0.0,0.0,84,0.00,,,0.00,Wunderground v.1.13,2013-03-04 09:40:00,
2013-03-04 04:50:00,25.2,21.0,30.11,NW,325,0.0,0.0,84,0.00,,,0.00,Wunderground v.1.13,2013-03-04 09:50:00,
2013-03-04 05:00:00,25.2,21.0,30.11,NW,325,0.0,0.0,84,0.00,,,0.00,Wunderground v.1.13,2013-03-04 10:00:00,
2013-03-04 05:10:00,25.1,20.7,30.11,NW,325,0.0,0.0,83,0.00,,,0.00,Wunderground v.1.13,2013-03-04 10:10:00,
2013-03-04 05:20:00,25.1,20.9,30.11,NW,325,0.0,0.0,84,0.00,,,0.00,Wunderground v.1.13,2013-03-04 10:20:00,
2013-03-04 05:30:00,25.0,21.1,30.12,NW,325,0.0,0.0,85,0.00,,,0.00,Wunderground v.1.13,2013-03-04 10:30:00,
2013-03-04 05:40:00,24.9,21.0,30.12,NW,325,0.0,0.0,85,0.00,,,0.00,Wunderground v.1.13,2013-03-04 10:40:00,
2013-03-04 05:50:00,24.9,21.0,30.13,NW,325,0.0,0.0,85,0.00,,,0.00,Wunderground v.1.13,2013-03-04 10:50:00,
2013-03-04 06:00:00,24.9,21.3,30.13,NW,325,0.0,0.0,86,0.00,,,0.00,Wunderground v.1.13,2013-03-04 11:00:00,
2013-03-04 06:10:00,24.9,21.0,30.14,NW,325,0.0,0.0,85,0.00,,,0.00,Wunderground v.1.13,2013-03-04 11:10:00,
2013-03-04 06:20:00,25.0,20.8,30.14,NW,325,0.0,0.0,84,0.00,,,0.00,Wunderground v.1.13,2013-03-04 11:20:00,
2013-03-04 06:30:00,25.1,20.9,30.15,NW,325,0.0,0.0,84,0.00,,,0.00,Wunderground v.1.13,2013-03-04 11:30:00,
2013-03-04 06:40:00,25.2,21.0,30.15,NW,325,0.0,0.0,84,0.00,,,0.00,Wunderground v.1.13,2013-03-04 11:40:00,
2013-03-04 06:50:00,25.1,20.7,30.15,NW,325,0.0,0.0,83,0.00,,,0.00,Wunderground v.1.13,2013-03-04 11:50:00,
2013-03-04 07:00:00,25.2,20.5,30.15,NW,325,0.0,0.0,82,0.00,,,0.00,Wunderground v.1.13,2013-03-04 12:00:00,
2013-03-04 07:10:00,25.4,21.0,30.15,NW,325,0.0,1.0,83,0.00,,,0.00,Wunderground v.1.13,2013-03-04 12:10:00,
2013-03-04 07:20:00,25.5,20.5,30.15,NW,321,0.0,0.0,81,0.00,,,0.00,Wunderground v.1.13,2013-03-04 12:20:00,
2013-03-04 07:30:00,25.7,20.1,30.16,NW,325,0.0,0.0,79,0.00,,,0.00,Wunderground v.1.13,2013-03-04 12:30:00,
2013-03-04 07:40:00,25.9,19.7,30.16,NW,325,0.0,0.0,77,0.00,,,0.00,Wunderground v.1.13,2013-03-04 12:40:00,
2013-03-04 07:50:00,26.1,20.8,30.16,NW,325,0.0,0.0,80,0.00,,,0.00,Wunderground v.1.13,2013-03-04 12:50:00,
2013-03-04 08:00:00,26.3,20.4,30.17,NW,325,0.0,0.0,78,0.00,,,0.00,Wunderground v.1.13,2013-03-04 13:00:00,
2013-03-04 08:10:00,26.6,20.7,30.17,NW,325,0.0,0.0,78,0.00,,,0.00,Wunderground v.1.13,2013-03-04 13:10:00,
2013-03-04 08:20:00,26.9,20.3,30.17,NW,325,0.0,0.0,76,0.00,,,0.00,Wunderground v.1.13,2013-03-04 13:20:00,
2013-03-04 08:30:00,27.1,19.6,30.17,NW,318,0.0,0.0,73,0.00,,,0.00,Wunderground v.1.13,2013-03-04 13:30:00,
2013-03-04 08:40:00,27.4,19.6,30.17,WSW,258,0.0,0.0,72,0.00,,,0.00,Wunderground v.1.13,2013-03-04 13:40:00,
2013-03-04 08:50:00,27.9,19.0,30.17,NW,316,0.0,1.0,69,0.00,,,0.00,Wunderground v.1.13,2013-03-04 13:50:00,
2013-03-04 09:00:00,28.3,18.4,30.18,West,275,1.0,1.0,66,0.00,,,0.00,Wunderground v.1.13,2013-03-04 14:00:00,
2013-03-04 09:10:00,28.8,19.2,30.18,NW,312,1.0,1.0,67,0.00,,,0.00,Wunderground v.1.13,2013-03-04 14:10:00,
2013-03-04 09:20:00,29.0,19.1,30.17,NNW,327,2.0,2.0,66,0.00,,,0.00,Wunderground v.1.13,2013-03-04 14:20:00,
2013-03-04 09:30:00,29.5,18.4,30.18,NNW,327,2.0,2.0,63,0.00,,,0.00,Wunderground v.1.13,2013-03-04 14:30:00,
2013-03-04 09:40:00,29.9,18.5,30.18,SSW,202,2.0,4.0,62,0.00,,,0.00,Wunderground v.1.13,2013-03-04 14:40:00,
2013-03-04 09:50:00,30.5,19.4,30.17,SSW,211,2.0,2.0,63,0.00,,,0.00,Wunderground v.1.13,2013-03-04 14:50:00,
2013-03-04 10:00:00,30.4,18.5,30.17,NNW,331,3.0,3.0,61,0.00,,,0.00,Wunderground v.1.13,2013-03-04 15:00:00,
2013-03-04 10:09:00,30.2,18.4,30.17,NW,308,3.0,3.0,61,0.00,,,0.00,Wunderground v.1.13,2013-03-04 15:09:00,
2013-03-04 10:20:00,30.1,18.6,30.17,West,259,3.0,3.0,62,0.00,,,0.00,Wunderground v.1.13,2013-03-04 15:20:00,
2013-03-04 10:30:00,30.4,18.9,30.17,WNW,284,2.0,2.0,62,0.00,,,0.00,Wunderground v.1.13,2013-03-04 15:30:00,
2013-03-04 10:40:00,31.1,19.2,30.16,WNW,302,2.0,3.0,61,0.00,,,0.00,Wunderground v.1.13,2013-03-04 15:40:00,
2013-03-04 10:50:00,31.9,20.7,30.16,WNW,294,2.0,2.0,63,0.00,,,0.00,Wunderground v.1.13,2013-03-04 15:50:00,
2013-03-04 11:00:00,32.0,20.1,30.16,South,190,2.0,2.0,61,0.00,,,0.01,Wunderground v.1.13,2013-03-04 16:00:00,
2013-03-04 11:10:00,32.4,20.0,30.16,WSW,258,2.0,3.0,60,0.00,,,0.01,Wunderground v.1.13,2013-03-04 16:10:00,
2013-03-04 11:19:00,33.4,22.5,30.15,West,267,1.0,1.0,64,0.00,,,0.01,Wunderground v.1.13,2013-03-04 16:19:00,
2013-03-04 11:30:00,33.7,21.3,30.15,WSW,252,3.0,3.0,60,0.00,,,0.01,Wunderground v.1.13,2013-03-04 16:30:00,
2013-03-04 11:40:00,33.1,19.9,30.15,WNW,298,3.0,3.0,58,0.00,,,0.01,Wunderground v.1.13,2013-03-04 16:40:00,
2013-03-04 11:50:00,34.1,20.0,30.15,NW,305,2.0,3.0,56,0.00,,,0.01,Wunderground v.1.13,2013-03-04 16:50:00,
2013-03-04 12:00:00,34.4,21.1,30.14,WNW,296,2.0,2.0,58,0.00,,,0.01,Wunderground v.1.13,2013-03-04 17:00:00,
2013-03-04 12:10:00,35.2,21.9,30.14,West,273,1.0,3.0,58,0.00,,,0.01,Wunderground v.1.13,2013-03-04 17:10:00,
2013-03-04 12:20:00,35.3,19.4,30.14,SW,226,3.0,3.0,52,0.00,,,0.01,Wunderground v.1.13,2013-03-04 17:20:00,
2013-03-04 12:30:00,35.9,20.9,30.13,SW,232,2.0,2.0,54,0.00,,,0.02,Wunderground v.1.13,2013-03-04 17:30:00,
2013-03-04 12:40:00,35.8,22.0,30.12,NNE,22,2.0,2.0,57,0.00,,,0.02,Wunderground v.1.13,2013-03-04 17:40:00,
2013-03-04 12:50:00,37.2,21.6,30.12,WNW,301,2.0,3.0,53,0.00,,,0.02,Wunderground v.1.13,2013-03-04 17:50:00,
2013-03-04 13:00:00,37.7,23.4,30.11,SSW,196,3.0,3.0,56,0.00,,,0.03,Wunderground v.1.13,2013-03-04 18:00:00,
2013-03-04 13:10:00,37.7,20.7,30.11,SW,221,3.0,3.0,50,0.00,,,0.03,Wunderground v.1.13,2013-03-04 18:10:00,
2013-03-04 13:20:00,37.5,20.1,30.10,NNW,328,3.0,4.0,49,0.00,,,0.03,Wunderground v.1.13,2013-03-04 18:20:00,
2013-03-04 13:30:00,37.9,20.4,30.10,SW,216,3.0,3.0,49,0.00,,,0.03,Wunderground v.1.13,2013-03-04 18:30:00,
2013-03-04 13:40:00,38.2,21.2,30.09,WNW,286,2.0,3.0,50,0.00,,,0.03,Wunderground v.1.13,2013-03-04 18:40:00,
2013-03-04 13:50:00,38.4,20.9,30.09,WSW,244,2.0,2.0,49,0.00,,,0.04,Wunderground v.1.13,2013-03-04 18:50:00,
2013-03-04 14:00:00,39.3,20.7,30.08,SSE,167,1.0,1.0,47,0.00,,,0.04,Wunderground v.1.13,2013-03-04 19:00:00,
2013-03-04 14:10:00,40.1,21.5,30.08,NNW,330,3.0,3.0,47,0.00,,,0.04,Wunderground v.1.13,2013-03-04 19:10:00,
2013-03-04 14:20:00,39.9,19.7,30.08,WNW,298,2.0,2.0,44,0.00,,,0.04,Wunderground v.1.13,2013-03-04 19:20:00,
2013-03-04 14:30:00,40.3,20.1,30.07,SW,236,2.0,2.0,44,0.00,,,0.04,Wunderground v.1.13,2013-03-04 19:30:00,
2013-03-04 14:40:00,40.0,19.3,30.07,WSW,245,2.0,3.0,43,0.00,,,0.04,Wunderground v.1.13,2013-03-04 19:40:00,
2013-03-04 14:50:00,39.6,20.0,30.07,WSW,243,2.0,2.0,45,0.00,,,0.04,Wunderground v.1.13,2013-03-04 19:50:00,
2013-03-04 14:59:00,40.6,20.4,30.07,WSW,246,1.0,4.0,44,0.00,,,0.04,Wunderground v.1.13,2013-03-04 19:59:00,
2013-03-04 15:00:00,40.4,19.1,30.07,WSW,247,2.0,5.0,42,0.00,,,-99.99,WeatherLink 6.0.2,2013-03-04 20:00:00,
2013-03-04 15:10:00,41.1,19.7,30.07,North,355,3.0,3.0,42,0.00,,,0.04,Wunderground v.1.13,2013-03-04 20:10:00,
2013-03-04 15:20:00,41.1,19.7,30.06,SSW,203,3.0,3.0,42,0.00,,,0.04,Wunderground v.1.13,2013-03-04 20:20:00,
2013-03-04 15:30:00,41.9,22.6,30.06,NNW,342,1.0,3.0,46,0.00,,,0.04,Wunderground v.1.13,2013-03-04 20:30:00,
2013-03-04 15:39:00,42.3,19.7,30.06,NW,309,2.0,5.0,40,0.00,,,0.04,Wunderground v.1.13,2013-03-04 20:39:00,
2013-03-04 15:50:00,41.1,19.7,30.06,NNE,26,3.0,3.0,42,0.00,,,0.04,Wunderground v.1.13,2013-03-04 20:50:00,
2013-03-04 15:59:00,41.7,20.8,30.06,SW,235,1.0,5.0,43,0.00,,,0.05,Wunderground v.1.13,2013-03-04 20:59:00,
2013-03-04 16:00:00,41.4,19.4,30.06,WSW,247,1.0,5.0,41,0.01,,,-99.99,WeatherLink 6.0.2,2013-03-04 21:00:00,
2013-03-04 16:10:00,41.7,19.7,30.06,WNW,287,2.0,2.0,41,0.00,,,0.05,Wunderground v.1.13,2013-03-04 21:10:00,
2013-03-04 16:20:00,42.1,19.5,30.06,WNW,302,2.0,4.0,40,0.00,,,0.05,Wunderground v.1.13,2013-03-04 21:20:00,
2013-03-04 16:30:00,42.0,20.5,30.06,SSW,207,2.0,2.0,42,0.00,,,0.05,Wunderground v.1.13,2013-03-04 21:30:00,
2013-03-04 16:40:00,42.0,19.4,30.06,NNW,329,2.0,2.0,40,0.00,,,0.05,Wunderground v.1.13,2013-03-04 21:40:00,
2013-03-04 16:50:00,42.1,18.9,30.06,West,278,1.0,1.0,39,0.00,,,0.05,Wunderground v.1.13,2013-03-04 21:50:00,
2013-03-04 16:59:00,42.2,20.7,30.06,WNW,287,1.0,1.0,42,0.00,,,0.05,Wunderground v.1.13,2013-03-04 21:59:00,
2013-03-04 17:00:00,42.1,20.1,30.06,WNW,292,1.0,7.0,41,0.00,,,-99.99,WeatherLink 6.0.2,2013-03-04 22:00:00,
2013-03-04 17:10:00,41.5,19.5,30.06,NW,315,2.0,2.0,41,0.00,,,0.05,Wunderground v.1.13,2013-03-04 22:10:00,
2013-03-04 17:20:00,41.8,19.2,30.06,SW,229,1.0,1.0,40,0.00,,,0.05,Wunderground v.1.13,2013-03-04 22:20:00,
2013-03-04 17:30:00,41.5,18.9,30.06,NW,307,1.0,1.0,40,0.00,,,0.05,Wunderground v.1.13,2013-03-04 22:30:00,
2013-03-04 17:40:00,41.1,18.6,30.06,WSW,253,1.0,1.0,40,0.00,,,0.05,Wunderground v.1.13,2013-03-04 22:40:00,
2013-03-04 17:50:00,40.6,19.8,30.06,South,188,0.0,0.0,43,0.00,,,0.05,Wunderground v.1.13,2013-03-04 22:50:00,
2013-03-04 18:00:00,40.2,19.5,30.06,SSW,199,0.0,0.0,43,0.00,,,0.05,Wunderground v.1.13,2013-03-04 23:00:00,
2013-03-04 18:10:00,39.8,19.6,30.06,SSW,199,0.0,0.0,44,0.00,,,0.05,Wunderground v.1.13,2013-03-04 23:10:00,
2013-03-04 18:20:00,39.3,19.2,30.07,SSW,199,0.0,0.0,44,0.00,,,0.05,Wunderground v.1.13,2013-03-04 23:20:00,
2013-03-04 18:30:00,38.9,19.9,30.06,SSW,199,0.0,0.0,46,0.00,,,0.05,Wunderground v.1.13,2013-03-04 23:30:00,
2013-03-04 18:39:00,38.4,19.4,30.07,SSW,199,0.0,0.0,46,0.00,,,0.05,Wunderground v.1.13,2013-03-04 23:39:00,
2013-03-04 18:50:00,37.8,19.3,30.07,SSW,199,0.0,0.0,47,0.00,,,0.05,Wunderground v.1.13,2013-03-04 23:50:00,
2013-03-04 18:59:00,37.1,19.2,30.07,SSW,199,0.0,0.0,48,0.00,,,0.05,Wunderground v.1.13,2013-03-04 23:59:00,
2013-03-04 19:00:00,37.2,19.8,30.07,North,-999,0.0,0.0,49,0.00,,,-99.99,WeatherLink 6.0.2,2013-03-05 00:00:00,
2013-03-04 19:10:00,36.5,19.6,30.08,SSW,199,0.0,0.0,50,0.00,,,0.05,Wunderground v.1.13,2013-03-05 00:10:00,
2013-03-04 19:20:00,35.8,20.3,30.07,SSW,199,0.0,0.0,53,0.00,,,0.05,Wunderground v.1.13,2013-03-05 00:20:00,
2013-03-04 19:29:00,35.2,20.6,30.08,SSW,199,0.0,0.0,55,0.00,,,0.05,Wunderground v.1.13,2013-03-05 00:29:00,
2013-03-04 19:30:00,35.3,21.2,30.07,North,-999,0.0,0.0,56,0.00,,,-99.99,WeatherLink 6.0.2,2013-03-05 00:30:00,
2013-03-04 19:40:00,34.8,21.5,30.07,SSW,199,0.0,0.0,58,0.00,,,0.05,Wunderground v.1.13,2013-03-05 00:40:00,
2013-03-04 19:50:00,34.4,19.9,30.07,SSW,199,0.0,0.0,55,0.00,,,0.05,Wunderground v.1.13,2013-03-05 00:50:00,
2013-03-04 19:59:00,33.9,21.1,30.08,SSW,199,0.0,0.0,59,0.00,,,0.05,Wunderground v.1.13,2013-03-05 00:59:00,
2013-03-04 20:00:00,34.0,21.6,30.08,North,-999,0.0,0.0,60,0.00,,,-99.99,WeatherLink 6.0.2,2013-03-05 01:00:00,
2013-03-04 20:10:00,33.3,20.9,30.08,SSW,199,0.0,0.0,60,0.00,,,0.05,Wunderground v.1.13,2013-03-05 01:10:00,
2013-03-04 20:20:00,32.7,20.7,30.08,SSW,199,0.0,0.0,61,0.00,,,0.05,Wunderground v.1.13,2013-03-05 01:20:00,
2013-03-04 20:30:00,32.2,21.4,30.08,SSW,199,0.0,0.0,64,0.00,,,0.05,Wunderground v.1.13,2013-03-05 01:30:00,
2013-03-04 20:40:00,31.9,20.3,30.08,SSW,199,0.0,0.0,62,0.00,,,0.05,Wunderground v.1.13,2013-03-05 01:40:00,
2013-03-04 20:49:00,31.7,20.9,30.09,SSW,199,0.0,0.0,64,0.00,,,0.05,Wunderground v.1.13,2013-03-05 01:49:00,
2013-03-04 21:00:00,31.5,20.7,30.09,SSW,199,0.0,0.0,64,0.00,,,0.05,Wunderground v.1.13,2013-03-05 02:00:00,
2013-03-04 21:10:00,31.2,20.8,30.09,SSW,199,0.0,0.0,65,0.00,,,0.05,Wunderground v.1.13,2013-03-05 02:10:00,
2013-03-04 21:20:00,31.0,21.3,30.09,SSW,199,0.0,0.0,67,0.00,,,0.05,Wunderground v.1.13,2013-03-05 02:20:00,
2013-03-04 21:30:00,30.6,22.0,30.09,SSW,199,0.0,0.0,70,0.00,,,0.05,Wunderground v.1.13,2013-03-05 02:30:00,
2013-03-04 21:40:00,30.3,22.4,30.09,SSW,199,0.0,0.0,72,0.00,,,0.05,Wunderground v.1.13,2013-03-05 02:40:00,
2013-03-04 21:50:00,30.2,22.3,30.09,SSW,199,0.0,0.0,72,0.00,,,0.05,Wunderground v.1.13,2013-03-05 02:50:00,
2013-03-04 21:59:00,30.1,22.2,30.09,SSW,199,0.0,0.0,72,0.00,,,0.05,Wunderground v.1.13,2013-03-05 02:59:00,
2013-03-04 22:00:00,30.1,22.5,30.08,North,-999,0.0,0.0,73,0.00,,,-99.99,WeatherLink 6.0.2,2013-03-05 03:00:00,
2013-03-04 22:10:00,29.7,22.1,30.07,SSW,199,0.0,0.0,73,0.00,,,0.05,Wunderground v.1.13,2013-03-05 03:10:00,
2013-03-04 22:20:00,29.6,22.6,30.07,SSW,199,0.0,0.0,75,0.00,,,0.05,Wunderground v.1.13,2013-03-05 03:20:00,
2013-03-04 22:30:00,29.4,22.8,30.08,SSW,199,0.0,0.0,76,0.00,,,0.05,Wunderground v.1.13,2013-03-05 03:30:00,
2013-03-04 22:40:00,29.1,23.1,30.08,SSW,199,0.0,0.0,78,0.00,,,0.05,Wunderground v.1.13,2013-03-05 03:40:00,
2013-03-04 22:50:00,29.0,23.0,30.07,SSW,199,0.0,0.0,78,0.00,,,0.05,Wunderground v.1.13,2013-03-05 03:50:00,
2013-03-04 22:59:00,29.0,23.0,30.07,SSW,199,0.0,0.0,78,0.00,,,0.05,Wunderground v.1.13,2013-03-05 03:59:00,
2013-03-04 23:00:00,29.0,23.3,30.07,North,-999,0.0,0.0,79,0.00,,,-99.99,WeatherLink 6.0.2,2013-03-05 04:00:00,
2013-03-04 23:10:00,28.9,23.8,30.06,SSW,199,0.0,0.0,81,0.00,,,0.05,Wunderground v.1.13,2013-03-05 04:10:00,
2013-03-04 23:20:00,28.9,24.1,30.07,SSW,199,0.0,0.0,82,0.00,,,0.05,Wunderground v.1.13,2013-03-05 04:20:00,
2013-03-04 23:30:00,28.9,24.7,30.06,SSW,199,0.0,0.0,84,0.00,,,0.05,Wunderground v.1.13,2013-03-05 04:30:00,
2013-03-04 23:40:00,29.0,24.8,30.06,SSW,199,0.0,0.0,84,0.00,,,0.05,Wunderground v.1.13,2013-03-05 04:40:00,
2013-03-04 23:50:00,28.9,25.0,30.05,SSW,199,0.0,0.0,85,0.00,,,0.05,Wunderground v.1.13,2013-03-05 04:50:00,